Date,TemperatureHighF,TemperatureAvgF,TemperatureLowF,DewpointHighF,DewpointAvgF,DewpointLowF,HumidityHigh,HumidityAvg,HumidityLow,PressureMaxIn,PressureMinIn,WindSpeedMaxMPH,WindSpeedAvgMPH,GustSpeedMaxMPH,PrecipitationSumIn
2013-11-1,72.8,62.4,45.9,65.5,54.9,44.8,99,79,40,29.81,29.66,15,2,18,0.74
2013-11-2,65.1,51.6,39.9,51.3,42.5,36.1,100,75,37,30.10,29.78,11,1,14,0.00
2013-11-3,59.2,47.3,38.1,42.1,39.6,37.1,97,77,45,30.29,30.06,13,1,13,0.00
2013-11-4,64.8,48.5,34.4,42.8,39.0,33.8,99,74,38,30.42,30.28,16,1,16,0.00
2013-11-5,64.6,51.4,40.6,49.2,42.2,38.6,96,73,44,30.44,30.29,7,0,7,0.00
2013-11-6,71.0,57.8,45.4,59.6,53.4,43.1,98,86,65,30.31,30.05,14,1,14,0.05
2013-11-7,63.4,51.4,36.9,59.9,43.5,31.3,99,76,40,30.27,30.00,15,1,15,0.42
2013-11-8,56.4,42.2,32.1,34.2,29.5,22.6,93,65,29,30.40,30.26,15,1,16,0.00
2013-11-9,55.9,42.6,28.1,38.9,33.7,27.4,98,74,44,30.34,30.23,14,1,14,0.00
2013-11-10,69.3,51.8,36.8,45.5,38.7,31.6,98,66,25,30.32,30.22,10,0,10,0.00
2013-11-11,65.5,48.0,34.7,40.7,32.6,28.6,84,59,27,30.32,30.15,9,0,9,0.00
2013-11-12,53.7,42.1,30.2,42.6,29.9,14.7,85,63,42,30.55,30.13,18,2,19,0.00
2013-11-13,45.1,32.5,24.0,23.6,18.8,14.7,90,59,33,30.66,30.49,14,1,14,0.00
2013-11-14,57.2,35.1,20.2,30.3,22.7,17.9,97,67,23,30.52,30.30,9,0,9,0.00
2013-11-15,47.6,39.4,28.8,42.1,35.0,23.3,97,85,64,30.32,30.16,4,0,4,0.31
2013-11-16,57.8,48.9,42.8,55.8,48.1,41.6,99,97,93,30.23,30.09,9,0,9,0.01
2013-11-17,65.5,61.4,57.6,65.4,60.2,55.6,100,96,87,30.11,29.83,15,2,17,1.67
2013-11-18,65.5,57.6,43.4,65.5,42.1,33.1,100,59,32,30.14,29.84,27,1,27,0.10
2013-11-19,53.7,44.5,37.5,33.5,29.4,22.9,72,56,32,30.23,30.12,18,2,19,0.00
2013-11-20,59.5,44.6,29.8,37.9,32.7,28.3,95,66,36,30.31,30.17,10,1,10,0.00
2013-11-21,61.3,54.5,48.6,52.2,44.9,35.7,86,70,60,30.35,30.25,11,1,11,0.00
2013-11-22,56.8,54.9,52.6,56.5,53.6,51.0,99,95,86,30.30,30.17,10,1,11,0.19
2013-11-23,54.5,46.0,32.9,50.7,38.0,20.4,93,75,50,30.39,30.19,15,2,15,0.00
2013-11-24,37.4,29.9,22.8,21.7,13.6,6.2,69,52,27,30.58,30.38,22,2,22,0.00
2013-11-25,40.1,33.2,26.8,31.9,19.4,11.4,97,59,37,30.49,30.22,7,0,7,0.30
2013-11-26,42.9,36.6,31.8,42.4,35.8,31.0,99,97,90,30.24,29.76,13,1,13,2.27
2013-11-27,37.7,31.4,23.7,34.9,24.0,15.7,92,74,57,30.33,29.82,18,2,19,0.01
2013-11-28,44.1,28.4,16.3,25.7,20.6,14.5,95,75,44,30.51,30.32,9,0,9,0.00
2013-11-29,50.1,33.5,21.5,28.5,24.9,20.7,97,74,39,30.60,30.49,7,1,8,0.00
2013-11-30,54.4,37.2,24.2,33.6,27.2,23.5,97,71,34,30.55,30.32,10,1,12,0.00